Wetbulb
73.22 75.81 78.77 78.52 78.04 77.62 77.30 77.31 77.75 77.97 78.24 78.37 78.77 78.51 78.56 78.80 78.84 79.11 79.01 78.86 78.93 78.98 78.21 78.06 77.53 77.12 76.35 77.01 77.48 77.44 77.64 77.39 77.27 77.19 76.98 76.50 76.65 76.87 76.79 77.42 77.21 74.54 76.79
74.64 75.90 78.72 78.68 78.32 77.96 77.74 78.05 78.04 78.01 78.23 78.46 78.32 76.96 78.01 77.99 78.01 78.36 78.32 78.52 78.36 78.22 78.72 78.08 77.86 76.46 76.57 77.12 77.68 77.46 77.19 77.57 77.45 77.22 76.65 76.73 76.51 76.97 77.51 77.18 76.57 75.61 76.57
74.53 75.96 76.96 78.72 78.73 78.07 77.75 77.85 77.34 77.16 77.71 78.45 78.48 78.10 78.06 77.66 77.90 78.21 78.28 77.81 78.18 77.97 77.30 77.99 77.24 76.47 77.44 76.90 77.15 77.39 77.16 77.10 76.69 76.91 77.47 74.58 75.38 76.51 76.76 76.19 76.56 76.39 76.45
75.05 75.06 76.65 78.41 78.54 78.45 78.26 78.26 77.94 77.16 77.41 78.36 78.52 78.29 77.95 77.68 77.60 77.10 77.10 77.42 77.61 77.74 77.21 76.88 77.62 77.27 77.81 77.60 77.62 77.13 77.06 76.78 75.85 74.57 74.16 74.12 74.18 76.78 76.72 76.43 76.32 76.48 76.39
74.43 75.19 77.37 79.15 78.62 78.49 78.46 78.28 78.29 77.99 77.71 78.40 78.32 77.93 77.28 77.23 76.93 76.69 76.66 76.63 76.66 76.96 77.39 77.30 76.80 77.21 77.32 77.56 77.28 77.04 76.50 76.27 74.65 73.04 74.22 74.00 73.58 76.02 76.54 76.54 76.18 75.97 76.46
74.78 76.40 78.89 79.36 79.21 78.44 79.20 78.65 78.67 78.45 78.19 78.59 78.46 77.66 77.29 76.85 76.69 76.66 76.66 76.58 76.97 76.69 76.05 76.71 76.77 76.55 76.02 76.40 76.57 76.15 75.44 74.41 72.86 73.81 73.81 74.40 73.62 76.26 76.51 76.59 76.56 76.41 76.24
76.36 76.85 77.63 79.48 79.22 79.09 79.09 78.85 79.02 78.65 78.10 77.77 77.65 77.48 77.01 76.88 76.52 76.58 75.99 75.35 75.16 74.95 75.15 75.52 75.14 75.82 75.66 75.76 74.91 75.65 74.44 72.86 73.04 73.50 74.40 74.14 74.86 77.10 76.36 76.02 76.28 76.02 76.16
75.94 75.99 76.71 79.05 79.59 79.33 78.97 78.67 78.37 78.02 77.66 77.65 76.77 75.69 74.72 74.94 74.69 75.15 74.81 75.24 75.35 75.38 75.21 74.77 75.13 75.98 75.38 75.00 74.28 73.72 74.77 73.82 72.50 72.92 73.91 73.73 75.77 77.10 76.33 75.91 75.98 75.81 75.38
75.49 76.11 76.54 76.66 77.77 78.82 79.16 78.84 78.30 77.61 77.47 76.93 75.33 74.80 73.97 73.80 74.25 74.54 74.90 74.30 74.23 74.65 75.23 75.57 75.04 75.82 75.66 74.66 74.19 74.66 73.41 72.26 72.67 72.69 72.62 73.22 76.02 76.75 75.84 75.80 75.91 75.67 75.42
75.22 74.92 75.87 76.21 77.00 77.38 77.27 78.29 77.94 77.41 76.99 76.32 76.16 75.88 74.31 74.51 73.45 74.49 73.78 73.85 74.08 74.44 74.61 75.12 75.40 75.72 75.80 75.38 74.58 74.66 74.19 73.69 71.21 71.89 72.54 72.36 76.07 76.06 75.79 75.69 75.71 75.81 75.55
74.65 74.84 74.75 75.62 76.73 77.66 77.69 77.30 78.01 77.32 76.57 75.80 74.26 73.64 72.41 73.12 73.99 74.19 73.16 73.58 74.07 74.60 75.18 75.48 75.28 75.60 75.63 75.60 75.16 74.86 74.05 72.37 71.40 70.89 72.14 73.52 75.33 74.69 75.00 75.35 75.79 75.88 75.68
73.46 74.60 75.07 75.06 75.48 76.08 75.82 77.38 77.26 76.16 75.16 75.34 72.91 70.43 70.58 69.83 73.00 72.56 72.51 74.10 75.13 75.27 75.41 75.82 75.68 76.10 75.47 73.96 74.35 74.57 72.70 70.99 71.37 69.97 71.65 73.81 74.63 74.68 73.74 73.47 75.19 75.51 75.85
73.71 74.67 75.27 75.91 76.43 75.18 75.05 76.00 75.89 75.11 75.61 74.07 72.60 70.80 70.86 69.62 71.08 71.54 73.09 73.16 73.29 75.31 74.49 75.06 74.56 74.85 74.16 73.06 73.51 73.18 73.63 73.47 72.87 71.05 71.88 73.78 73.73 73.01 73.08 73.45 74.21 75.15 75.10
72.53 73.80 74.75 75.00 74.71 73.78 76.16 75.80 75.96 74.80 74.52 73.36 73.13 71.51 70.65 69.81 69.90 71.25 72.39 74.55 73.09 73.91 75.21 72.94 74.55 74.69 73.59 74.11 73.46 72.75 73.25 72.66 73.17 72.64 71.67 74.58 73.91 73.82 74.09 74.00 74.11 73.88 75.01
72.28 72.75 72.94 73.87 75.49 75.32 75.19 76.44 76.56 74.40 74.21 75.99 76.44 73.95 72.63 70.42 70.09 69.45 74.22 75.00 74.21 74.89 72.40 74.33 73.91 73.71 75.42 74.48 74.54 72.68 72.82 72.60 73.25 72.21 72.74 74.46 74.51 73.91 73.91 74.11 74.47 74.44 73.75
72.78 73.21 74.04 75.23 76.66 76.71 76.71 76.34 75.44 75.76 74.74 75.88 76.28 75.64 75.30 75.04 74.60 73.09 70.21 73.64 73.73 75.59 74.78 74.50 73.86 75.72 72.55 72.98 73.51 74.71 74.35 72.88 72.58 73.06 72.38 72.45 75.29 74.82 74.35 74.65 74.90 74.58 74.49
73.24 73.37 74.77 74.87 75.41 76.87 76.96 76.68 76.62 76.09 76.22 75.78 75.69 75.88 75.95 75.22 74.14 72.59 70.52 70.79 73.05 72.59 74.08 75.95 76.85 75.70 74.52 73.14 73.17 74.81 75.66 76.17 75.07 73.17 72.74 72.37 74.18 75.10 74.71 75.01 75.78 75.09 75.38
72.74 74.23 74.50 74.62 74.98 76.12 75.57 77.56 76.44 76.79 76.31 75.07 74.53 74.77 75.44 75.47 73.69 72.82 72.60 71.83 75.21 75.20 75.64 74.82 75.29 71.36 73.92 74.79 72.62 72.25 73.19 74.26 75.53 74.21 73.54 73.83 73.83 73.37 74.64 75.82 76.13 76.14 75.30
73.20 72.25 72.84 74.63 73.73 75.24 77.45 76.95 76.72 77.19 76.36 74.07 76.18 75.50 74.95 74.86 73.88 72.62 71.85 71.83 73.34 75.32 75.34 75.09 75.30 74.81 74.57 72.89 73.10 74.70 74.40 74.80 72.61 74.25 73.30 72.71 73.35 74.05 73.06 75.35 75.77 76.00 75.35
72.92 72.10 72.77 75.83 76.00 77.36 76.86 77.00 78.14 78.08 76.32 75.30 76.45 75.83 75.68 74.49 73.62 73.29 71.66 71.39 74.23 74.05 75.16 74.71 74.91 73.59 74.03 74.71 73.05 73.82 72.45 74.41 73.60 71.33 72.23 74.48 73.70 73.45 73.43 73.38 73.81 74.57 75.93
69.62 68.83 75.19 75.96 76.67 76.47 77.24 75.41 76.55 76.44 76.13 76.28 75.83 74.71 73.51 74.39 75.11 74.19 73.78 70.63 73.41 73.73 74.25 74.26 74.96 74.31 72.69 72.77 72.39 71.02 67.80 71.57 74.29 72.87 72.32 73.48 73.15 73.38 73.33 73.92 73.37 73.07 74.50
70.62 70.50 74.26 75.61 76.74 77.20 76.69 76.70 77.63 75.83 77.47 76.56 74.43 73.62 74.00 74.31 74.09 73.11 74.46 74.52 74.22 72.85 76.01 74.78 75.11 72.43 69.85 71.87 71.15 71.74 69.03 70.39 72.64 72.70 73.09 71.80 72.97 73.46 73.01 73.52 73.22 72.65 73.53
70.94 73.34 75.22 76.04 75.37 76.90 77.11 77.68 77.14 78.03 74.33 71.84 72.51 73.55 73.56 74.35 73.47 72.16 74.04 75.01 73.95 75.09 73.09 74.90 75.05 74.61 71.43 73.58 74.26 71.49 67.02 64.43 68.52 71.23 70.08 70.72 72.53 72.43 73.17 72.86 73.42 73.39 73.20
73.48 74.72 75.82 76.49 77.43 77.16 78.11 77.27 77.25 73.92 72.45 73.65 71.49 71.37 72.90 74.09 73.78 74.14 74.80 74.71 75.13 75.02 73.99 76.27 75.18 73.63 73.37 71.96 73.54 74.58 70.11 68.46 65.52 64.63 69.18 65.97 70.42 71.94 73.32 72.91 72.92 73.34 73.36
72.97 73.23 75.44 76.71 77.35 78.35 78.08 78.12 72.94 75.54 75.81 75.61 74.65 73.74 73.88 73.90 74.35 74.50 74.78 75.28 75.51 74.92 74.57 75.46 73.39 75.14 75.40 73.73 70.65 70.37 69.87 68.37 68.75 65.82 64.45 69.53 72.49 73.15 73.36 72.71 73.13 73.02 73.54
73.54 74.13 75.15 76.73 77.42 78.68 78.17 77.70 75.01 77.23 75.54 74.76 73.87 73.81 74.13 75.45 74.70 74.58 74.58 75.46 75.66 75.23 75.54 76.03 76.61 76.11 75.94 75.86 75.01 73.22 69.20 68.53 67.83 68.05 66.93 67.13 68.11 70.06 73.64 74.73 71.88 73.83 73.58
MSLP
1011.44 1012.41 1013.19 1013.64 1014.00 1014.34 1014.65 1014.98 1015.22 1015.53 1015.70 1015.93 1016.10 1016.33 1016.49 1016.58 1016.57 1016.70 1016.87 1016.97 1017.13 1017.21 1017.30 1017.43 1017.63 1017.71 1017.77 1017.83 1017.82 1017.95 1018.07 1018.18 1018.29 1018.48 1018.59 1018.71 1018.89 1019.01 1019.05 1018.96 1019.02 1019.43 1019.75
1010.89 1012.24 1013.12 1013.82 1014.28 1014.64 1014.99 1015.30 1015.48 1015.74 1016.03 1016.29 1016.47 1016.65 1016.85 1017.02 1017.10 1017.15 1017.29 1017.37 1017.42 1017.44 1017.49 1017.66 1017.80 1017.94 1018.02 1018.09 1018.13 1018.24 1018.36 1018.50 1018.57 1018.72 1019.06 1019.09 1019.10 1019.18 1019.25 1019.36 1019.51 1019.85 1020.12
1010.97 1012.11 1013.04 1013.70 1014.26 1014.82 1015.26 1015.59 1015.94 1016.18 1016.37 1016.45 1016.71 1017.01 1017.13 1017.30 1017.40 1017.51 1017.55 1017.65 1017.69 1017.71 1017.83 1017.87 1017.97 1018.14 1018.19 1018.31 1018.35 1018.43 1018.60 1018.77 1019.02 1019.02 1018.90 1019.20 1019.47 1019.44 1019.63 1019.79 1019.94 1020.15 1020.41
1010.79 1011.88 1012.86 1013.77 1014.35 1014.86 1015.46 1015.79 1016.14 1016.45 1016.61 1016.81 1017.01 1017.29 1017.44 1017.58 1017.74 1017.86 1017.93 1017.96 1017.96 1018.03 1018.08 1018.17 1018.25 1018.31 1018.38 1018.48 1018.62 1018.65 1018.72 1018.97 1019.20 1019.29 1019.11 1019.01 1019.45 1019.78 1019.98 1020.16 1020.33 1020.57 1020.73
1010.67 1011.51 1013.09 1013.83 1014.49 1015.02 1015.46 1015.89 1016.23 1016.54 1016.80 1017.05 1017.26 1017.50 1017.73 1017.85 1017.96 1018.05 1018.15 1018.24 1018.24 1018.31 1018.36 1018.36 1018.39 1018.48 1018.51 1018.57 1018.78 1018.75 1019.04 1018.97 1019.18 1019.30 1019.12 1019.26 1019.69 1020.05 1020.24 1020.40 1020.61 1020.78 1020.92
1010.17 1011.47 1013.29 1013.95 1014.59 1015.11 1015.56 1015.89 1016.20 1016.53 1016.85 1017.16 1017.42 1017.64 1017.88 1018.06 1018.20 1018.25 1018.29 1018.36 1018.38 1018.47 1018.51 1018.53 1018.55 1018.64 1018.55 1018.70 1018.84 1018.92 1019.20 1019.24 1019.19 1019.28 1019.57 1019.46 1019.98 1020.20 1020.33 1020.48 1020.76 1020.99 1021.24
1010.60 1012.19 1013.38 1014.05 1014.49 1014.96 1015.45 1015.96 1016.26 1016.56 1016.86 1017.26 1017.52 1017.76 1017.96 1018.08 1018.31 1018.41 1018.44 1018.43 1018.49 1018.55 1018.59 1018.57 1018.61 1018.74 1018.64 1018.70 1018.77 1019.07 1019.14 1019.23 1019.19 1019.45 1019.87 1020.02 1020.44 1020.37 1020.56 1020.75 1020.92 1021.25 1021.48
1011.06 1012.25 1013.50 1014.29 1014.66 1014.99 1015.46 1015.91 1016.33 1016.70 1016.97 1017.24 1017.57 1017.82 1018.08 1018.26 1018.48 1018.50 1018.49 1018.45 1018.44 1018.49 1018.56 1018.61 1018.75 1018.78 1018.73 1018.87 1019.02 1019.03 1019.10 1019.14 1019.35 1019.48 1019.82 1020.31 1020.47 1020.60 1020.76 1020.90 1020.97 1021.29 1021.59
1010.87 1012.43 1013.47 1014.37 1014.93 1015.17 1015.55 1015.94 1016.35 1016.74 1017.14 1017.43 1017.68 1017.98 1018.04 1018.37 1018.46 1018.49 1018.51 1018.45 1018.37 1018.32 1018.40 1018.54 1018.65 1018.68 1018.73 1018.88 1018.92 1018.97 1019.03 1019.11 1019.57 1019.91 1019.86 1020.27 1020.60 1020.74 1020.98 1021.04 1021.17 1021.40 1021.74
1011.31 1012.49 1013.30 1014.23 1014.92 1015.30 1015.63 1016.02 1016.42 1016.85 1017.12 1017.33 1017.73 1018.01 1018.28 1018.52 1018.60 1018.49 1018.51 1018.45 1018.34 1018.25 1018.27 1018.47 1018.47 1018.55 1018.74 1018.92 1019.01 1018.98 1018.98 1019.02 1019.37 1019.59 1019.96 1020.09 1020.32 1020.64 1020.98 1021.14 1021.39 1021.48 1021.85
1011.46 1012.36 1013.21 1013.98 1014.57 1015.16 1015.55 1016.02 1016.41 1016.77 1017.12 1017.47 1017.60 1017.96 1018.12 1018.58 1018.77 1018.62 1018.49 1018.36 1018.20 1018.06 1018.08 1018.18 1018.35 1018.30 1018.10 1018.52 1018.91 1018.94 1019.02 1018.73 1018.93 1019.48 1019.83 1019.96 1020.42 1020.76 1020.86 1021.11 1021.43 1021.58 1021.94
1011.40 1012.37 1013.17 1013.76 1014.03 1014.76 1014.85 1015.77 1016.49 1016.73 1017.09 1017.65 1017.90 1018.05 1018.17 1018.46 1018.75 1018.60 1018.27 1018.08 1017.77 1017.72 1017.75 1017.86 1018.01 1017.56 1017.86 1018.03 1018.48 1018.82 1018.85 1018.61 1018.68 1019.20 1019.56 1019.88 1020.20 1020.49 1020.96 1021.11 1021.30 1021.70 1021.98
1010.82 1011.65 1012.81 1013.42 1013.70 1013.86 1014.61 1015.44 1016.08 1016.76 1017.12 1017.55 1017.94 1018.21 1018.40 1018.58 1018.71 1018.49 1018.12 1017.78 1017.57 1017.37 1017.35 1017.21 1017.55 1017.49 1017.67 1017.68 1018.08 1018.41 1018.89 1018.42 1018.91 1019.10 1018.82 1019.32 1019.99 1020.22 1020.74 1021.07 1021.31 1021.67 1021.98
1010.45 1011.29 1011.69 1012.81 1013.34 1013.71 1014.37 1015.04 1015.70 1016.53 1016.63 1016.74 1017.13 1017.81 1018.12 1018.44 1018.61 1018.42 1018.03 1017.86 1017.58 1017.07 1016.80 1016.89 1017.22 1017.36 1017.47 1017.65 1017.62 1018.01 1017.62 1017.48 1018.27 1019.01 1018.52 1018.85 1019.52 1019.91 1020.28 1020.68 1021.14 1021.55 1021.94
1010.61 1011.12 1011.72 1012.49 1013.06 1013.65 1014.30 1014.73 1015.42 1016.00 1016.11 1016.43 1016.76 1017.24 1017.49 1017.78 1018.11 1018.17 1017.82 1017.62 1017.38 1017.07 1016.67 1016.79 1017.07 1016.78 1016.88 1017.07 1017.06 1017.66 1017.32 1017.41 1017.93 1019.34 1018.81 1018.64 1018.97 1019.57 1019.98 1020.33 1020.68 1021.19 1021.68
1010.67 1011.53 1011.79 1012.33 1012.80 1013.39 1014.44 1014.92 1015.32 1015.64 1015.66 1016.14 1016.55 1016.79 1017.10 1017.44 1017.60 1017.68 1017.86 1017.20 1017.19 1017.00 1016.60 1016.26 1016.56 1016.50 1016.85 1017.47 1016.98 1016.53 1015.99 1016.94 1018.03 1018.84 1018.18 1018.48 1018.84 1019.19 1019.58 1019.81 1020.19 1020.75 1021.26
1010.03 1011.23 1011.85 1012.19 1012.57 1013.40 1014.29 1014.79 1014.91 1015.13 1015.18 1015.91 1016.32 1016.55 1016.80 1017.11 1017.37 1017.75 1017.81 1017.58 1017.09 1017.02 1016.54 1015.83 1015.87 1016.16 1016.22 1016.47 1016.48 1015.81 1015.52 1015.64 1016.11 1017.55 1017.93 1018.39 1018.46 1019.01 1019.06 1019.27 1019.71 1020.24 1020.77
1010.58 1011.29 1012.31 1012.54 1012.42 1013.02 1013.94 1014.50 1014.73 1014.92 1015.09 1015.60 1016.11 1016.31 1016.55 1016.88 1017.23 1017.38 1017.50 1017.38 1016.61 1016.50 1016.06 1015.68 1015.66 1016.17 1016.20 1015.93 1015.98 1015.49 1016.29 1015.86 1016.07 1017.00 1017.92 1018.32 1018.58 1018.79 1018.92 1018.84 1019.18 1019.82 1020.37
1011.96 1012.44 1012.50 1012.54 1012.69 1012.91 1013.57 1014.09 1014.40 1014.50 1014.75 1015.29 1015.69 1016.09 1016.56 1016.69 1017.15 1017.35 1017.52 1017.37 1016.94 1016.47 1016.00 1015.62 1015.65 1015.82 1015.65 1015.58 1015.75 1015.75 1015.74 1015.75 1015.98 1016.36 1017.50 1017.88 1017.56 1017.75 1018.11 1018.64 1018.94 1019.30 1019.75
1011.93 1012.82 1013.00 1012.48 1012.64 1013.01 1013.65 1014.13 1014.22 1014.39 1014.42 1014.67 1015.13 1015.72 1015.93 1016.41 1016.84 1017.22 1017.36 1017.36 1016.81 1016.18 1015.87 1015.83 1016.06 1016.28 1016.23 1015.82 1015.58 1015.78 1016.09 1015.77 1016.04 1016.28 1016.50 1016.95 1016.95 1017.04 1017.35 1017.82 1018.53 1018.99 1019.26
1011.67 1011.38 1011.54 1011.91 1012.65 1013.30 1013.57 1014.09 1014.33 1014.19 1014.50 1014.77 1015.37 1015.62 1016.11 1016.08 1016.51 1016.92 1016.79 1017.07 1016.63 1016.17 1015.88 1016.38 1016.84 1016.51 1016.02 1016.00 1016.26 1016.73 1016.76 1016.33 1015.96 1016.21 1015.87 1016.05 1016.33 1016.49 1016.36 1016.97 1017.71 1018.24 1018.70
1011.88 1011.90 1011.66 1012.00 1012.51 1013.24 1013.58 1013.70 1013.89 1014.24 1014.33 1014.83 1015.10 1015.59 1016.04 1016.14 1016.25 1016.57 1016.48 1016.44 1016.40 1016.10 1016.03 1016.57 1016.71 1016.59 1015.89 1015.51 1016.59 1016.28 1016.69 1016.50 1016.16 1016.15 1016.31 1016.05 1015.76 1015.75 1016.19 1016.54 1016.88 1017.36 1017.75
1011.68 1011.58 1011.75 1012.39 1012.71 1013.07 1013.37 1013.55 1013.88 1014.31 1014.73 1015.25 1015.46 1015.66 1015.67 1015.72 1015.86 1016.30 1016.20 1016.08 1016.04 1015.99 1015.93 1016.23 1016.62 1016.57 1016.33 1015.52 1015.65 1015.99 1017.07 1017.73 1017.69 1017.06 1016.67 1016.89 1016.10 1015.84 1015.98 1016.51 1016.77 1017.00 1016.97
1009.96 1010.74 1011.44 1011.72 1012.05 1012.73 1012.95 1013.01 1013.52 1014.00 1014.60 1014.90 1014.90 1015.11 1015.31 1015.32 1015.56 1015.79 1015.79 1015.81 1015.78 1015.73 1015.68 1015.89 1016.25 1016.47 1016.32 1016.08 1016.27 1016.20 1017.09 1017.89 1018.25 1018.72 1018.59 1017.00 1017.20 1016.19 1016.16 1016.20 1016.49 1016.78 1016.86
1009.29 1009.96 1010.73 1011.36 1011.85 1012.13 1012.60 1013.03 1013.61 1014.03 1014.21 1014.41 1014.63 1014.80 1014.74 1014.93 1015.11 1015.35 1015.39 1015.35 1015.58 1015.52 1015.41 1015.60 1015.58 1015.69 1015.63 1016.00 1016.21 1016.65 1016.55 1016.62 1017.51 1019.03 1018.24 1017.50 1017.14 1016.63 1016.12 1016.02 1015.86 1016.03 1016.20
1008.70 1009.22 1010.03 1010.80 1011.26 1011.63 1012.13 1012.71 1013.21 1013.52 1013.85 1014.07 1014.23 1014.45 1014.60 1014.58 1014.64 1014.65 1014.86 1014.97 1015.06 1015.15 1015.06 1015.14 1015.31 1015.32 1015.09 1014.93 1015.59 1015.68 1016.00 1015.61 1017.20 1017.17 1017.79 1017.39 1017.52 1016.87 1016.30 1015.82 1015.83 1015.62 1015.58
Wind_Speed
17 17 16 15 17 16 17 17 17 15 15 14 15 15 15 15 15 15 14 14 13 12 11 10 11 12 12 12 14 14 14 15 15 15 16 16 13 10 13 16 18 15 15
21 19 17 16 16 16 15 15 15 15 14 13 14 16 14 14 13 13 12 13 13 11 13 15 14 13 12 12 13 14 13 13 13 16 15 14 15 14 15 18 19 14 15
21 19 18 17 16 16 15 15 15 15 14 13 13 13 13 14 12 11 12 11 12 12 11 13 13 12 12 13 12 12 12 11 10 13 16 8 9 16 17 17 16 15 15
21 19 19 18 17 17 15 15 14 14 14 11 13 12 12 13 12 12 11 11 11 11 11 10 12 11 12 12 12 11 11 9 8 6 4 10 11 15 15 15 15 15 15
20 19 18 18 17 17 16 15 14 14 13 11 12 12 11 11 12 11 10 10 10 9 8 8 10 9 9 11 11 10 9 10 6 3 7 5 7 12 15 14 13 13 14
20 22 19 19 18 17 15 15 14 14 13 11 11 11 11 10 9 9 8 8 7 7 5 6 7 7 8 8 7 9 6 5 4 7 6 6 8 12 11 15 14 14 14
22 20 18 18 18 17 15 14 14 14 13 12 11 11 10 8 8 7 6 5 4 3 2 3 5 5 6 7 7 8 5 5 2 6 7 7 7 11 12 14 14 12 12
21 20 17 17 16 16 16 14 13 13 13 13 12 11 10 7 4 3 3 2 1 1 2 2 4 6 7 7 7 6 5 4 5 7 8 5 8 11 13 13 14 12 12
20 18 16 15 14 16 14 14 13 14 14 13 12 13 9 4 1 0 2 1 1 3 3 4 5 8 8 7 7 7 5 5 4 3 7 5 9 12 12 13 12 12 10
18 17 14 13 11 11 12 14 15 15 15 18 16 14 9 5 2 3 2 1 4 4 4 6 6 8 8 7 8 8 7 6 2 3 3 6 14 15 13 12 11 12 10
16 15 14 13 12 9 10 11 13 15 15 15 14 12 10 2 3 5 3 6 8 10 9 7 6 9 10 9 9 11 10 4 5 3 3 17 13 13 13 13 11 10 9
18 16 11 12 13 13 12 12 8 7 6 5 4 3 3 4 3 6 8 12 13 12 12 11 9 12 8 2 5 13 5 5 4 4 3 10 13 14 11 10 11 9 9
17 14 16 14 12 12 9 8 6 4 4 4 5 4 3 2 3 4 3 3 2 11 5 7 8 6 3 6 7 8 5 5 2 4 9 12 12 12 10 11 11 9 10
16 18 17 15 9 7 8 7 7 6 6 6 7 8 5 4 5 6 3 4 5 5 3 5 4 6 9 8 11 11 9 5 2 3 5 16 15 13 15 15 15 12 10
16 14 10 14 11 8 5 6 6 7 6 4 3 8 6 5 6 5 4 4 4 4 4 5 6 3 3 6 5 9 13 13 11 5 3 14 17 15 15 17 17 16 14
9 8 15 13 9 10 6 7 6 5 6 4 4 5 8 4 2 4 3 5 3 3 5 7 4 3 8 12 11 6 9 12 14 12 7 8 17 17 18 19 18 18 17
14 9 11 11 9 10 7 6 6 5 6 5 5 6 7 6 5 4 3 4 6 4 10 5 1 2 5 6 12 3 4 3 9 11 9 3 9 19 20 20 17 18 17
3 9 11 11 13 12 12 6 4 5 4 5 4 3 7 7 6 5 3 4 4 5 3 6 1 2 5 3 2 3 6 3 2 12 13 10 8 10 15 18 18 17 19
4 2 6 7 11 11 8 7 6 7 5 7 6 5 7 8 7 4 3 4 5 5 5 6 2 3 3 3 3 5 6 4 3 4 10 13 12 9 9 17 19 19 20
4 0 18 5 8 7 7 6 3 1 4 4 4 4 8 7 7 5 5 5 5 7 2 4 3 3 5 5 3 4 5 2 5 4 5 10 10 11 11 12 11 11 18
2 7 5 6 9 5 5 5 4 3 5 3 5 3 5 6 8 8 3 5 7 7 4 3 4 4 5 6 4 4 4 8 0 5 6 5 10 9 9 10 8 8 10
12 13 8 9 8 7 5 4 3 4 2 3 4 5 7 11 5 7 8 5 6 6 4 3 3 3 5 6 2 1 1 3 3 5 5 4 10 10 10 12 13 12 11
15 14 9 10 9 7 8 5 4 2 4 2 2 3 4 5 6 5 8 6 4 5 5 6 4 5 6 2 4 4 2 1 4 5 10 10 9 4 7 10 11 10 10
12 11 10 9 9 8 7 6 5 4 3 3 4 3 5 6 6 8 9 6 5 5 7 3 5 5 5 5 4 4 12 4 3 2 2 7 8 10 2 8 10 9 8
13 13 11 10 9 7 8 4 3 5 4 3 3 6 8 7 9 10 9 8 7 6 8 7 4 4 3 3 5 4 1 3 5 2 4 3 2 4 4 3 4 8 11
13 14 12 10 9 7 8 8 7 3 5 4 5 5 4 4 6 9 8 8 7 8 8 5 5 6 4 4 2 5 4 3 6 5 3 2 2 4 4 4 5 4 8
Wind_Direction
134 134 134 133 130 127 126 125 119 112 108 105 98 91 86 80 83 89 93 90 87 88 105 112 109 100 98 95 92 92 89 91 92 93 98 101 98 103 123 120 106 100 97
131 140 138 138 134 130 130 131 127 121 116 109 102 98 94 90 88 89 90 95 94 89 95 108 110 108 108 104 100 104 105 107 113 111 103 99 95 85 87 90 92 102 99
133 133 144 143 137 134 137 135 133 125 118 114 104 103 97 94 93 92 91 98 103 101 95 106 113 118 118 118 112 109 112 113 113 124 136 108 98 98 93 99 104 104 102
130 143 140 140 138 139 141 137 137 134 123 119 108 104 100 98 94 89 85 84 94 103 113 110 121 125 128 128 128 129 122 116 105 52 259 114 102 107 108 107 107 106 106
140 135 132 139 141 140 141 139 138 140 132 127 116 109 103 101 101 98 95 92 87 87 111 116 120 126 133 140 144 143 134 138 119 126 62 127 107 112 116 114 113 120 106
147 123 136 139 141 143 144 146 144 143 140 133 125 115 110 104 104 102 95 85 89 105 103 122 128 136 148 151 125 125 138 153 128 99 84 88 93 122 132 108 108 110 114
112 128 136 140 143 143 146 151 147 148 143 137 127 117 112 106 102 99 101 101 105 106 117 134 116 155 166 150 148 142 171 222 187 105 88 88 111 110 112 113 117 116 114
127 131 136 138 142 144 146 149 149 149 141 133 126 110 88 92 102 114 111 119 146 198 237 228 165 188 192 180 178 173 193 243 62 106 111 97 122 121 121 118 118 120 122
131 124 137 141 142 144 145 149 148 144 137 130 124 112 101 80 72 269 112 169 257 282 267 248 218 205 210 200 204 195 203 230 84 178 134 124 147 134 127 122 123 121 121
123 138 140 144 149 152 151 152 150 148 143 134 132 125 118 67 38 243 218 295 288 279 270 259 240 214 219 211 221 226 207 233 185 131 144 160 158 143 136 132 130 126 128
130 140 146 152 155 158 149 162 162 158 158 161 155 145 110 112 332 290 303 272 262 264 259 253 240 203 209 204 223 235 233 214 179 153 239 164 155 155 149 140 135 133 138
148 144 151 160 167 171 179 147 167 166 161 171 151 147 150 169 264 285 278 267 262 256 259 247 227 216 205 207 180 236 218 236 170 155 109 150 176 167 150 146 138 148 152
155 152 159 174 172 186 129 154 150 142 154 163 166 168 175 179 239 270 258 272 275 253 247 209 212 226 155 208 189 208 225 206 238 200 170 165 184 180 178 184 163 164 171
158 164 164 173 168 125 144 151 150 167 202 194 184 174 183 189 208 247 264 272 286 302 251 242 245 226 195 206 208 194 202 175 72 244 206 187 189 196 194 192 183 183 182
157 167 153 160 142 148 159 153 148 181 207 170 153 172 188 193 200 238 233 244 243 311 281 254 246 55 14 330 222 168 230 139 194 226 228 232 205 203 200 194 193 195 198
140 158 140 156 138 143 127 137 160 186 218 169 179 190 208 175 169 199 268 286 313 295 284 266 91 279 114 250 256 236 225 175 173 185 195 223 218 197 201 196 191 201 206
160 170 152 152 154 149 145 160 176 200 194 163 183 196 199 191 183 193 236 267 255 227 271 305 194 278 199 200 228 324 250 263 140 165 182 241 205 204 199 192 190 192 202
91 172 163 172 170 171 151 172 185 206 167 157 174 193 183 176 185 201 211 253 304 294 312 291 156 294 266 296 116 75 268 257 325 156 146 182 212 198 204 196 189 194 203
359 78 10 204 176 153 155 160 193 198 191 163 174 175 202 167 196 167 208 272 282 280 292 284 37 205 266 257 228 196 233 175 168 169 171 190 180 201 179 196 196 196 205
274 336 190 147 140 137 154 160 200 254 226 147 154 184 181 174 185 184 210 261 269 265 240 311 335 343 311 309 172 64 350 298 108 169 213 192 181 196 178 176 189 199 204
326 278 211 176 138 155 155 168 183 196 192 265 138 220 116 252 175 197 213 211 246 271 243 285 344 307 309 312 43 56 312 304 33 218 231 144 175 205 175 167 173 194 194
232 236 203 163 162 177 170 186 168 219 189 140 129 127 213 211 159 197 230 204 225 270 231 226 286 347 306 338 232 91 47 342 293 311 12 309 197 172 186 174 177 189 176
213 196 171 170 165 181 176 169 184 227 86 84 110 171 221 242 182 221 264 236 214 249 257 211 201 229 251 269 188 149 125 57 353 2 345 332 322 148 178 187 194 186 183
151 159 171 183 178 179 185 179 193 173 156 194 193 190 208 214 199 222 230 235 232 253 261 245 218 209 233 261 5 16 67 76 38 55 231 290 312 304 252 192 190 197 198
150 161 163 174 182 183 183 218 165 199 181 170 179 219 199 198 209 214 221 224 224 233 246 258 265 246 279 267 104 266 187 135 170 183 259 236 281 306 293 268 256 176 188
162 163 155 162 166 188 187 170 206 170 189 193 200 208 225 212 200 210 216 221 224 231 249 257 251 221 249 289 251 262 137 147 212 173 171 307 259 274 281 278 283 268 189